Dewpoint
55 45 37 25 19 16 7 5 4 4 11 17 24 22 17 19 26 34 51 61 59 62 65 69 71 72 73 73 73 73 73 73 73 73 73 73 73 73 73 73 73 73 73 73 71 71 71 71 71
41 36 31 21 16 10 6 7 3 9 6 23 23 26 25 27 30 40 51 59 60 61 66 66 70 72 72 73 73 73 74 73 73 73 73 72 73 73 72 73 72 73 73 72 71 71 71 71 71
47 33 23 17 15 14 6 2 3 7 17 17 17 28 32 30 34 39 55 59 57 57 63 67 70 71 72 72 73 73 73 73 73 73 73 73 73 73 72 72 72 72 73 72 71 71 71 71 70
37 29 23 16 13 11 11 10 4 5 19 17 17 22 30 36 44 46 56 58 57 58 60 69 70 71 72 72 72 73 73 72 72 73 73 73 73 73 71 70 72 72 72 72 71 71 71 70 69
30 22 18 14 13 11 9 9 8 11 17 17 16 17 22 34 42 50 55 57 60 61 63 70 69 69 71 72 72 72 71 72 72 72 72 72 73 72 70 71 71 71 71 71 70 71 70 69 69
27 24 18 13 12 10 10 8 9 10 16 21 19 19 22 34 40 49 55 60 62 64 66 69 69 69 70 71 71 71 71 71 71 72 71 72 70 70 69 69 69 69 69 68 70 70 69 68 68
27 22 18 15 13 12 10 13 13 10 14 12 14 17 24 30 45 49 56 61 64 66 68 70 70 69 69 69 70 70 70 70 70 70 69 69 68 69 69 68 68 68 67 68 69 69 68 68 67
27 25 20 17 14 13 11 12 12 11 11 14 15 20 22 41 44 55 58 59 63 66 68 70 70 70 70 70 69 69 70 69 69 70 68 68 68 67 68 68 67 67 68 67 68 68 67 67 66
28 24 21 18 16 16 15 14 13 14 11 12 18 22 25 40 40 54 57 59 60 64 67 70 70 70 70 69 68 69 69 69 68 68 67 66 67 67 67 65 65 66 66 66 67 67 66 65 64
25 23 20 19 17 16 16 16 16 15 17 19 15 19 23 39 38 47 54 57 58 62 65 69 69 69 69 65 70 68 68 67 67 65 67 67 68 66 65 63 64 66 66 67 67 66 64 64 63
22 21 20 16 16 18 19 18 18 16 18 20 22 22 23 28 31 43 48 54 56 60 62 65 69 69 69 66 69 67 66 65 68 67 67 68 69 66 67 65 65 67 67 67 66 65 66 64 63
21 22 21 19 19 19 20 20 17 17 20 20 21 21 21 23 29 33 40 49 53 57 60 63 66 66 67 64 68 66 65 67 65 66 67 68 67 66 66 64 65 65 66 66 65 66 66 63 62
15 16 17 19 16 17 19 19 18 18 19 20 21 23 23 22 23 26 31 41 51 53 59 62 64 65 65 68 68 67 64 64 67 66 67 67 65 65 63 62 64 63 65 65 65 65 65 62 60
16 16 17 17 15 17 17 17 18 18 18 19 20 22 23 23 23 24 30 33 45 52 58 62 65 65 66 66 66 66 67 66 66 66 66 66 66 64 64 62 63 65 65 64 63 64 64 62 59
22 19 17 16 17 17 19 18 19 21 21 21 21 23 24 25 23 23 29 33 37 46 55 62 66 66 65 65 65 65 66 67 66 66 67 65 65 65 64 64 64 64 64 63 63 63 64 59 57
17 18 14 14 16 19 22 19 18 19 19 21 23 25 25 25 22 20 28 31 35 45 56 61 63 65 64 64 64 64 65 66 66 66 67 65 64 65 64 63 63 64 63 63 63 62 62 59 55
17 12 12 12 16 19 20 21 20 22 23 21 22 24 25 25 21 21 27 30 37 48 57 61 64 64 64 64 64 63 64 65 66 66 65 65 64 64 64 63 63 63 63 62 62 62 61 57 56
8 10 13 13 15 21 22 19 19 21 22 25 25 25 25 24 21 21 27 34 42 50 57 62 63 64 64 63 62 62 63 63 64 63 64 64 65 64 64 63 62 62 62 61 62 61 60 56 55
16 14 12 13 13 15 16 15 15 16 17 21 25 26 27 27 25 24 30 36 46 53 58 61 62 63 62 61 61 61 61 61 62 63 63 63 64 64 64 62 61 61 61 61 61 60 58 58 56
16 16 15 15 16 22 22 21 20 20 18 19 20 25 27 28 26 25 28 38 50 54 58 61 61 62 61 59 59 59 61 61 61 62 63 62 62 63 62 62 61 61 60 59 59 60 58 56 56
17 17 17 18 21 21 21 19 20 21 24 23 22 21 23 28 28 25 26 37 51 53 58 59 61 61 61 60 59 60 61 61 60 61 62 61 62 62 63 62 61 60 59 58 58 59 57 55 57
18 19 22 24 22 16 19 16 18 17 18 21 23 25 25 28 28 26 25 35 49 53 58 59 60 60 60 60 59 59 59 57 59 59 61 61 61 62 62 61 60 60 59 58 59 60 59 57 54
22 24 27 25 21 19 17 16 15 18 19 21 24 24 25 28 29 27 26 28 45 53 57 59 60 59 59 59 59 57 56 57 58 58 60 61 61 61 61 61 60 59 59 59 59 59 59 57 56
24 26 26 23 19 18 19 16 13 17 25 27 28 29 27 28 29 28 26 27 41 51 58 59 59 58 59 59 58 58 57 57 57 58 59 60 60 59 59 60 60 60 59 59 59 59 59 58 57
26 25 15 10 18 19 18 19 18 22 32 33 34 34 39 39 39 35 31 31 39 51 57 59 58 57 59 59 58 57 57 59 58 58 59 59 58 58 58 58 58 59 60 60 59 59 59 59 57
22 23 17 13 14 20 25 19 25 33 34 35 37 40 42 45 48 43 36 37 44 51 57 58 57 57 58 58 58 57 57 57 57 58 57 59 59 59 59 58 58 58 58 59 59 59 58 59 59
24 23 22 22 22 19 16 16 28 35 35 36 39 41 43 45 48 48 40 46 48 54 59 59 57 57 57 57 57 56 57 57 57 58 59 60 60 60 60 59 57 57 57 57 58 58 58 59 59
26 30 29 28 22 17 15 17 35 36 37 39 41 41 43 44 45 50 45 48 50 57 57 58 57 57 57 57 56 57 57 57 58 59 58 57 58 58 59 59 59 57 56 56 56 56 56 55 56
27 28 30 31 29 23 22 32 39 37 38 38 38 40 41 41 42 46 50 52 55 56 56 58 57 57 57 57 56 56 57 57 58 58 57 57 58 58 58 59 59 58 57 56 55 55 54 54 54
21 26 28 29 23 28 29 31 39 39 38 38 38 38 38 39 40 41 45 48 54 55 56 56 56 55 56 56 56 57 56 56 57 56 56 57 57 57 58 58 57 58 58 57 57 56 55 53 53
Lifted_Index
9 9 10 9 8 7 5 4 4 5 6 7 7 6 6 5 3 1 -1 -2 -3 -3 -3 -3 -3 -3 -4 -4 -5 -5 -6 -6 -6 -6 -6 -6 -6 -6 -6 -6 -6 -6 -6 -6 -6 -5 -5 -5 -5
9 9 10 9 7 5 4 4 3 5 6 7 7 6 5 5 3 1 -1 -2 -2 -3 -3 -3 -3 -3 -4 -4 -5 -5 -6 -6 -6 -6 -6 -6 -6 -6 -6 -6 -6 -6 -6 -6 -6 -6 -6 -5 -5
9 9 9 9 7 5 4 3 3 5 7 7 7 6 5 4 3 1 -1 -2 -2 -2 -3 -3 -3 -3 -4 -4 -5 -5 -6 -6 -6 -6 -6 -6 -6 -6 -6 -6 -7 -7 -6 -6 -6 -6 -6 -5 -5
8 9 9 8 6 5 5 4 3 5 7 7 7 6 5 4 2 1 -1 -2 -2 -2 -3 -3 -3 -3 -4 -4 -5 -5 -6 -6 -7 -6 -6 -6 -6 -6 -6 -6 -6 -7 -6 -6 -6 -6 -6 -5 -5
8 8 7 6 6 6 5 5 5 6 7 7 7 7 6 4 2 0 -1 -2 -2 -2 -3 -4 -3 -3 -4 -4 -5 -5 -6 -6 -6 -6 -6 -6 -6 -6 -5 -5 -6 -6 -6 -6 -6 -6 -5 -5 -5
7 7 6 5 5 5 5 5 6 6 6 6 7 7 6 5 2 0 -1 -2 -3 -3 -4 -4 -4 -3 -4 -4 -5 -5 -5 -5 -6 -6 -6 -5 -5 -4 -4 -4 -4 -5 -5 -5 -6 -5 -5 -4 -4
7 7 6 6 5 5 5 6 6 6 6 6 7 7 6 4 2 0 -2 -3 -4 -4 -5 -5 -5 -4 -4 -5 -5 -5 -5 -5 -5 -5 -5 -4 -4 -3 -3 -2 -3 -3 -4 -4 -5 -5 -4 -4 -4
7 6 6 6 6 5 5 6 6 6 6 6 7 7 6 4 2 -0 -2 -4 -4 -5 -5 -6 -6 -6 -6 -5 -5 -5 -5 -5 -4 -4 -4 -3 -3 -2 -2 -1 -1 -1 -2 -3 -4 -4 -4 -3 -3
6 6 6 6 6 6 6 6 6 6 7 7 7 7 7 5 3 -0 -3 -4 -4 -5 -6 -6 -7 -7 -7 -6 -6 -5 -5 -4 -4 -3 -3 -3 -3 -2 -2 -1 -0 -0 -1 -2 -2 -3 -3 -2 -2
6 6 6 6 6 6 6 6 6 6 7 7 7 8 7 6 4 1 -2 -3 -4 -5 -6 -7 -7 -7 -7 -7 -7 -6 -5 -5 -4 -4 -3 -3 -3 -2 -1 -0 0 -1 -1 -2 -2 -1 -1 -1 -1
6 6 6 6 6 6 7 7 7 7 7 7 7 8 8 7 6 3 0 -2 -4 -5 -6 -7 -7 -7 -7 -7 -7 -7 -6 -5 -5 -4 -4 -3 -3 -2 -1 -0 -1 -1 -2 -2 -1 -1 -1 -1 -1
6 6 6 6 7 7 7 7 7 7 7 7 7 7 7 7 7 5 2 -1 -3 -4 -6 -6 -7 -7 -7 -7 -7 -7 -6 -5 -5 -5 -4 -3 -3 -2 -1 -1 -1 -1 -1 -1 -0 -0 -1 -1 -1
6 6 6 6 7 7 7 7 7 7 7 7 7 7 7 7 7 6 4 1 -2 -4 -6 -7 -7 -7 -7 -7 -7 -6 -6 -6 -5 -5 -4 -3 -3 -2 -1 -0 -1 -1 -1 -0 0 -0 -1 -1 -0
6 6 6 6 7 7 7 7 7 7 7 7 7 7 7 7 7 6 4 2 -0 -3 -6 -7 -7 -7 -7 -6 -6 -6 -5 -5 -5 -5 -4 -3 -3 -2 -1 -0 -0 -1 -0 0 1 0 -0 -0 0
5 5 5 5 5 5 5 6 6 6 6 6 6 6 6 6 7 6 5 3 0 -3 -5 -7 -7 -7 -7 -6 -5 -5 -5 -5 -4 -4 -4 -3 -3 -2 -1 -0 -0 -0 0 1 1 1 0 0 1
5 4 4 3 3 3 3 4 4 5 5 5 6 6 6 6 6 6 5 3 0 -3 -6 -7 -8 -7 -7 -6 -5 -4 -4 -4 -4 -4 -3 -3 -2 -2 -1 -0 0 0 1 1 1 1 1 1 2
3 3 2 2 2 2 2 3 4 4 4 5 5 5 5 5 6 5 4 2 -0 -3 -6 -7 -8 -7 -6 -5 -4 -3 -3 -3 -3 -3 -2 -2 -2 -1 -0 0 0 1 1 1 1 1 1 2 2
2 1 1 1 1 1 2 3 4 4 5 5 5 5 5 5 5 5 3 1 -1 -4 -6 -7 -8 -7 -6 -5 -4 -3 -2 -2 -2 -2 -1 -1 -1 -0 -0 0 1 1 1 1 2 1 1 2 3
1 1 1 1 1 2 2 3 4 5 5 5 5 5 4 4 4 4 3 1 -2 -5 -7 -8 -7 -7 -6 -4 -3 -3 -2 -2 -2 -1 -1 -0 -0 -0 -0 0 1 1 1 2 2 2 2 2 3
1 1 1 1 1 1 2 2 3 4 4 5 5 5 4 4 4 3 2 0 -3 -5 -7 -8 -7 -6 -5 -4 -3 -2 -2 -2 -1 -1 -0 0 0 -0 0 0 1 1 1 2 2 2 2 2 3
1 1 0 0 0 0 1 1 2 2 3 4 4 5 4 4 4 3 2 0 -3 -5 -7 -7 -7 -6 -5 -4 -3 -2 -2 -1 -1 -0 -0 -0 -0 -0 0 1 1 1 1 2 2 2 2 2 2
0 0 -0 -0 0 0 0 0 1 1 2 3 4 4 4 4 4 3 2 0 -3 -5 -6 -7 -7 -6 -5 -4 -3 -2 -1 -1 -0 -0 -0 -0 -0 -0 1 1 2 2 2 2 2 2 2 2 2
0 -0 -0 -0 0 1 0 0 1 1 1 2 3 4 4 4 3 3 2 0 -2 -5 -6 -7 -7 -6 -5 -4 -3 -2 -1 -1 -0 -0 -0 -0 -0 1 1 2 2 2 2 2 2 2 2 2 2
-0 -0 -0 0 0 1 0 0 0 0 1 2 3 3 3 3 2 2 1 0 -1 -4 -6 -7 -7 -6 -5 -4 -3 -2 -1 -1 -1 -0 -0 0 0 1 2 2 2 2 2 2 2 2 2 2 2
0 -0 -0 -0 -0 0 -0 -0 -0 -0 0 1 2 2 2 2 1 1 1 0 -1 -3 -5 -6 -6 -5 -5 -4 -3 -2 -1 -1 -1 -0 -0 0 0 1 2 2 2 2 2 2 2 2 2 2 2
-0 0 0 -0 -0 -0 -0 -1 -1 -1 0 1 2 2 2 1 -0 -0 -0 -1 -2 -3 -5 -6 -5 -5 -4 -4 -3 -2 -1 -1 -1 -0 -0 0 0 1 1 2 2 2 2 2 2 2 2 2 2
-0 -0 -0 -0 -0 -0 0 -0 -1 -1 0 1 2 2 2 1 -0 -1 -1 -2 -3 -4 -5 -5 -5 -4 -4 -3 -3 -2 -1 -1 -1 -0 -0 0 0 1 1 2 2 2 2 3 3 2 2 2 3
-0 -0 -0 -0 -0 -0 -0 -0 -0 -0 1 2 2 3 2 2 0 -1 -2 -3 -3 -4 -4 -4 -4 -4 -3 -3 -2 -1 -1 -1 -1 -0 0 1 1 1 1 2 2 2 2 2 2 2 3 3 4
-1 -1 -0 -1 -1 -1 -0 -0 -0 1 1 2 2 2 2 1 0 -1 -2 -3 -3 -4 -3 -3 -4 -3 -2 -2 -1 -1 -0 -0 -0 0 1 1 1 1 2 2 2 2 2 2 2 2 3 3 4
-1 -1 -0 -0 -0 -1 -1 -0 0 1 2 2 2 2 2 1 -0 -1 -2 -3 -3 -3 -3 -3 -3 -3 -2 -1 -1 -0 0 0 0 0 1 1 1 2 2 2 3 3 2 2 2 2 2 3 4